SCP
0 0 0 0 0 0 0 0 0 0 0 0 0 0 0 0 0 -0 0 0 0 0 0 0 0 0 0 0 0 0 0 0 0 0 0 0 0 0 0 0 0 0 0 0 0
0 0 0 0 0 0 0 0 0 0 0 0 0 0 0 0 0 0 0 0 0 0 0 0 0 0 0 0 0 0 0 0 0 0 0 0 0 0 0 0 0 0 0 0 0
0 0 0 0 0 0 0 0 0 0 0 0 0 0 0 0 0 0 0 0 0 0 0 0 0 0 0 0 0 0 0 0 0 0 0 0 0 0 0 0 0 0 0 0 0
0 0 0 0 0 0 0 0 0 0 0 0 0 0 0 0 0 0 0 0 0 0 0 0 0 0 0 0 0 0 0 0 0 0 0 0 0 0 0 0 0 0 0 0 0
0 0 0 0 0 0 0 0 0 0 0 0 0 0 0 0 0 0 0 0 0 0 0 0 0 0 0 0 0 0 0 0 0 0 0 0 0 0 0 0 0 0 0 0 0
0 0 0 0 0 0 0 0 0 0 0 0 0 0 0 0 0 0 0 0 0 0 0 0 0 0 0 0 0 0 0 0 0 0 0 0 0 0 0 0 0 0 0 0 0
0 0 0 0 0 0 0 0 0 0 0 0 0 0 0 0 0 0 0 0 0 0 0 0 0 0 0 0 0 0 0 0 0 0 0 0 0 0 0 0 0 0 0 0 0
0 0 0 0 0 0 0 0 0 0 0 0 0 0 0 0 0 0 0 0 0 0 0 -0 0 0 0 0 0 0 0 0 0 0 0 0 0 0 0 0 0 0 0 0 0
0 0 0 0 0 0 0 0 0 0 0 0 0 0 0 0 0 0 0 0 0 0 0 0 0 0 0 0 0 0 0 0 0 0 0 0 0 0 0 0 0 0 0 0 0
0 0 0 0 0 0 0 0 0 0 0 0 0 0 0 0 0 0 0 0 0 0 0 0 0 0 0 0 0 0 0 0 -0 0 0 0 0 -0 0 0 0 0 0 0 0
0 0 0 0 0 0 0 0 0 0 0 0 0 0 0 0 0 0 0 0 0 0 0 0 0 0 0 0 0 0 0 0 0 0 0 0 0 0 0 0 0 0 0 0 0
0 0 0 0 0 0 0 0 0 0 0 0 0 0 0 0 0 0 0 0 0 0 0 0 0 0 0 0 0 0 0 0 0 0 0 0 0 0 0 0 0 0 0 0 0
0 0 0 0 0 0 0 0 0 0 0 -0 0 0 0 0 0 0 0 0 0 0 0 0 0 0 0 0 0 0 0 0 0 0 0 0 0 0 0 0 0 0 0 0 0
0 0 0 0 0 0 0 0 0 0 0 0 0 0 0 0 0 -0 0 0 0 0 0 0 0 0 0 0 0 0 0 0 0 0 0 0 0 0 0 0 0 0 0 0 0
0 0 0 0 0 0 0 0 0 0 0 0 0 0 0 0 0 0 0 0 0 0 0 0 0 0 0 0 0 0 0 0 0 0 0 0 0 0 0 0 0 0 0 0 -0
0 0 0 0 0 0 0 0 0 0 0 0 0 0 0 0 0 0 0 0 0 0 0 0 0 0 0 0 0 0 0 0 0 0 0 0 0 0 0 0 0 0 0 -0 -0
0 0 0 0 0 0 0 0 0 0 0 0 0 0 0 0 0 0 0 0 0 0 0 0 0 0 0 0 0 0 0 0 0 0 0 0 0 0 -0 0 0 0 0 0 -0
0 0 0 0 0 0 0 0 0 0 0 0 0 0 0 0 0 0 0 0 0 0 0 0 0 0 0 0 0 0 0 0 0 0 0 0 0 0 0 0 0 0 0 0 -0
0 0 0 0 0 0 0 0 0 0 0 0 0 0 0 0 0 0 0 0 0 0 0 0 0 0 0 0 0 0 0 0 0 0 0 0 0 0 -0 0 0 0 0 0 0
0 0 0 0 0 0 0 0 0 0 0 0 0 0 0 0 0 0 0 0 0 0 0 0 0 0 0 0 0 0 0 0 0 0 0 0 0 0 -0 -0 0 0 0 0 -0
0 0 0 0 0 0 0 0 0 0 0 0 0 0 0 0 0 0 0 0 0 0 0 0 0 0 0 0 0 0 0 0 0 0 0 0 0 0 -0 -0 -0 -0 -0 0 -0
0 0 0 0 0 0 0 0 0 0 0 0 0 0 0 0 0 0 0 0 0 0 0 0 0 0 0 0 0 0 0 0 0 0 0 0 0 0 0 -0 -0 -0 0 0 -0
0 0 0 0 0 0 0 0 0 0 0 0 0 0 0 0 0 0 0 0 0 0 0 0 0 0 0 0 0 0 0 0 0 0 0 0 0 0 0 0 -0 -0 -0 -0 -0
0 0 0 0 0 0 0 0 0 0 0 0 0 0 0 0 0 0 0 0 0 0 0 0 0 0 0 0 0 0 0 0 0 0 0 0 -0 0 0 0 0 0 0 -0 -0
0 -0 0 0 0 0 0 0 0 0 0 0 0 0 0 0 0 0 0 0 0 0 0 0 0 0 0 0 0 0 0 0 0 0 0 0 0 -0 0 0 0 0 0 -0 -0
0 0 0 0 0 0 0 0 0 0 0 0 0 0 0 0 0 0 0 0 0 0 0 0 0 0 0 0 0 0 0 0 0 0 0 -0 -0 0 0 0 0 0 0 0 -0
0 0 0 0 0 0 0 0 0 -0 0 0 0 0 0 0 0 0 0 0 0 0 0 0 0 0 0 0 0 0 -0 0 0 0 0 0 -0 0 0 0 0 0 0 -0 -0
Wind_Speed_500mb
24 28 30 29 29 29 28 29 26 28 28 31 30 31 26 31 38 47 59 48 44 36 19 15 14 22 27 17 13 9 7 10 10 7 8 7 12 12 9 10 11 14 13 15 12
26 28 28 29 32 33 32 32 33 31 31 32 33 32 31 32 38 59 63 40 43 46 34 29 24 28 16 14 10 12 7 10 10 11 16 11 21 14 12 9 11 14 22 16 17
33 33 34 33 35 36 34 35 33 32 31 31 29 27 27 29 37 48 36 25 38 46 43 31 18 29 17 12 14 11 19 20 25 40 28 14 15 17 17 12 24 32 29 25 22
40 39 39 38 39 36 37 37 36 33 33 34 31 26 25 19 13 5 7 14 29 40 46 36 30 19 11 10 12 15 26 23 21 14 12 11 11 16 27 26 9 21 25 29 27
47 45 44 43 42 41 41 40 37 35 34 35 33 29 26 21 54 18 16 6 7 40 57 47 33 21 16 13 11 18 30 11 13 10 13 11 11 14 28 31 26 17 29 31 26
47 47 47 47 46 46 46 44 39 37 36 36 36 33 29 31 38 31 52 49 30 15 59 56 31 35 11 12 22 15 21 2 1 2 3 6 4 6 12 29 28 25 35 33 27
46 46 47 49 50 50 49 44 41 39 39 38 39 40 42 66 24 25 16 20 36 27 38 57 46 29 21 11 16 9 9 5 5 5 2 7 11 18 24 23 31 35 37 35 29
47 47 46 48 50 51 49 44 41 40 41 39 40 39 35 44 37 44 58 41 16 20 22 36 44 24 11 3 1 8 6 3 1 6 2 14 26 19 24 33 36 35 39 38 36
48 49 47 46 49 49 47 43 39 40 40 37 30 25 26 31 35 40 50 39 32 20 21 24 35 19 13 13 10 4 9 10 9 10 5 16 20 16 11 34 35 36 41 42 37
46 43 45 47 44 44 44 37 32 34 32 19 18 10 39 23 15 14 19 44 27 31 28 24 13 16 12 16 23 15 7 5 8 3 11 14 28 37 25 27 40 39 38 39 40
50 49 47 42 41 38 37 16 12 9 30 28 22 24 5 17 16 15 20 41 36 33 22 24 20 32 34 21 12 15 9 9 10 13 8 18 25 36 30 28 32 36 42 42 45
47 46 46 44 36 30 24 7 1 7 20 45 63 53 51 23 10 19 25 31 27 26 22 14 35 26 23 20 16 11 8 10 12 7 9 19 27 33 23 18 34 43 45 48 42
46 44 41 42 39 23 17 13 12 8 13 23 55 59 81 48 26 27 34 26 23 26 41 39 20 26 22 20 18 12 12 8 16 3 10 12 16 14 12 12 15 27 42 46 51
39 39 39 36 30 19 16 22 17 10 10 12 20 26 55 37 22 65 35 27 11 39 27 25 20 29 23 27 24 21 23 12 11 8 17 3 12 13 15 23 18 27 38 46 51
34 31 38 32 18 12 11 22 13 14 12 10 15 8 27 59 24 39 59 38 29 21 21 30 30 30 24 24 23 19 12 10 7 12 5 8 8 9 8 18 27 26 36 44 55
39 29 33 37 31 28 22 13 17 8 24 8 19 23 26 50 22 20 36 33 24 16 14 36 11 22 28 15 25 10 8 6 5 4 8 11 11 6 10 14 12 10 17 40 52
36 41 32 46 32 26 24 15 11 19 1 15 15 19 29 27 35 23 39 42 33 33 37 19 28 11 15 17 8 17 13 10 8 8 12 4 8 15 24 25 18 29 17 32 50
39 34 46 45 38 32 20 11 24 24 36 4 9 22 27 30 34 28 38 41 42 42 30 33 27 31 18 35 26 27 26 15 10 8 15 6 9 11 7 6 12 16 9 30 49
37 40 47 41 49 34 15 26 30 28 33 15 12 20 17 26 18 30 42 46 49 47 34 37 36 14 28 17 33 14 14 12 17 3 8 6 10 21 4 12 3 5 14 32 50
35 38 48 41 52 45 14 49 29 18 10 47 32 19 30 38 23 35 38 34 39 44 32 14 19 27 22 22 15 27 25 10 5 10 14 8 6 14 16 15 4 9 17 32 44
31 18 25 43 55 35 25 32 42 31 18 23 45 18 16 23 36 34 24 22 46 41 39 27 17 8 19 31 38 14 17 5 5 6 16 17 10 9 9 7 11 12 23 39 51
21 8 28 42 20 9 30 26 21 23 62 14 8 38 15 20 29 29 35 25 48 37 45 37 21 29 20 6 30 44 36 31 20 19 8 10 20 11 15 10 11 3 17 31 52
11 11 42 62 17 8 29 39 41 24 24 10 10 5 22 16 11 23 18 14 34 44 39 25 21 25 25 9 6 26 24 27 14 8 26 23 15 10 11 9 9 18 28 36 52
8 6 11 38 16 9 35 36 27 34 39 35 30 15 10 20 6 7 17 1 22 38 43 47 20 49 39 24 28 20 25 29 32 20 21 25 28 13 20 13 14 24 26 34 51
23 9 6 5 11 32 18 16 38 26 33 22 20 24 10 16 22 20 6 8 7 13 20 30 37 34 44 34 33 38 38 36 33 32 28 26 23 27 27 22 19 19 26 34 45
12 7 12 4 9 33 14 21 40 24 40 34 27 13 4 7 4 17 2 7 5 10 16 3 15 27 38 31 41 46 43 39 43 41 37 36 34 23 20 24 21 25 32 34 44
16 22 4 1 5 8 17 36 25 36 18 58 25 36 18 7 6 6 7 9 1 2 6 9 15 15 29 23 33 39 52 46 43 34 33 33 36 18 19 27 32 32 39 43 45
Wind_Direction_500mb
273 277 288 294 297 295 295 295 302 298 302 310 311 307 308 295 282 271 261 247 237 236 236 238 253 208 191 191 193 185 232 253 258 241 287 212 221 224 226 177 169 195 239 253 238
281 284 283 287 289 289 293 297 293 298 302 303 303 309 308 299 288 272 267 259 243 233 232 239 233 192 184 179 182 208 230 233 225 218 255 233 219 208 192 161 206 222 239 220 202
291 292 290 288 285 288 298 292 292 295 294 293 294 299 302 302 305 279 280 230 234 231 228 241 225 189 199 166 185 199 250 250 254 250 253 250 209 197 205 206 213 220 211 198 209
287 287 286 282 284 286 284 286 287 288 288 290 293 295 292 288 255 233 206 118 212 206 218 213 174 174 181 207 203 239 240 243 284 274 206 224 179 206 213 241 210 247 234 205 213
280 280 281 283 284 284 283 283 283 283 283 285 289 289 289 256 244 238 212 220 330 208 206 204 192 192 218 206 201 231 260 214 257 264 217 181 225 233 239 233 244 241 202 203 213
285 284 281 280 279 278 277 278 279 281 281 282 284 284 280 251 277 261 246 251 252 232 205 209 205 205 201 210 217 231 232 219 142 281 189 211 213 213 277 230 229 217 201 207 217
287 287 288 285 282 277 274 274 277 278 278 278 279 278 264 250 259 278 256 256 239 238 220 212 211 186 192 220 245 264 193 138 177 208 3 195 248 232 251 221 212 203 204 208 212
287 287 287 286 284 282 283 281 278 276 275 275 275 271 253 274 264 248 247 246 219 212 222 235 215 209 189 205 128 214 99 171 106 184 243 211 275 274 250 206 204 201 204 207 212
294 293 288 284 284 286 287 286 281 274 275 277 266 233 265 258 252 250 242 231 217 230 205 196 182 189 166 217 207 186 248 275 293 214 159 214 268 276 251 213 211 202 204 208 211
303 301 307 294 286 286 286 290 285 274 264 250 224 232 244 231 230 243 220 217 196 179 157 167 168 180 181 200 220 235 202 198 246 242 213 245 254 273 264 220 222 209 202 206 212
291 302 309 310 291 290 291 309 285 239 218 207 204 215 206 210 238 223 222 182 189 167 177 179 191 207 203 207 214 225 195 227 242 256 257 262 273 276 278 236 222 210 205 206 213
282 288 295 305 310 289 297 289 14 273 295 244 241 239 231 237 301 209 188 165 178 186 150 158 214 201 180 194 186 181 190 238 270 271 222 280 274 277 268 252 229 217 208 207 205
280 273 287 295 306 284 271 224 214 312 268 267 238 231 227 222 222 225 182 193 186 174 188 201 196 160 172 173 183 188 210 219 286 312 239 279 274 282 292 263 249 231 223 211 205
286 270 272 284 295 258 242 213 233 242 283 252 208 233 211 207 235 228 199 189 188 199 183 207 158 167 179 194 197 219 218 239 247 267 292 228 296 292 294 291 262 238 214 207 202
286 280 265 267 251 256 175 174 199 170 274 173 179 175 185 182 165 201 210 206 205 172 178 192 171 180 187 203 184 241 165 205 230 252 295 212 243 271 290 278 271 252 217 206 202
282 269 256 253 251 241 223 186 161 199 242 210 160 169 155 197 205 138 173 194 196 173 209 212 177 190 205 189 191 161 133 93 95 176 249 243 227 266 247 249 269 261 211 202 194
275 267 250 246 246 255 221 177 190 224 39 188 181 172 173 179 203 177 181 186 184 182 203 185 200 188 193 206 136 176 190 238 236 219 268 103 200 263 269 267 277 295 272 200 190
267 264 256 249 240 236 224 200 218 225 211 108 141 166 184 159 207 197 183 192 200 200 189 197 209 197 181 213 203 196 206 232 238 241 292 137 233 261 275 335 304 311 251 182 183
269 256 254 248 227 216 203 202 222 196 195 201 155 166 185 189 183 193 208 203 193 191 191 197 216 175 183 189 197 176 200 231 247 52 260 253 248 279 270 253 292 94 162 173 182
260 259 251 234 208 197 202 228 226 208 188 209 204 182 186 189 186 193 185 208 200 198 200 170 198 207 187 197 197 204 161 176 192 227 252 215 263 266 294 314 249 201 189 177 182
247 248 236 225 205 189 208 226 234 261 334 204 221 208 196 174 195 196 204 196 190 186 196 176 190 150 177 199 205 179 202 188 231 233 256 272 263 231 227 290 309 231 201 179 182
232 243 195 194 189 221 213 222 298 307 250 303 267 229 207 179 187 196 202 199 189 161 193 190 199 208 195 178 227 206 207 206 225 211 231 272 266 194 215 256 292 198 194 193 183
213 243 205 190 211 211 232 241 261 289 305 269 281 303 217 191 199 211 191 216 181 185 178 168 202 200 219 202 168 212 199 207 220 229 224 242 252 167 238 258 200 165 173 189 181
195 254 208 200 213 236 225 227 238 265 270 262 289 300 242 218 211 157 194 152 184 194 186 176 189 208 212 230 197 201 190 203 201 219 230 237 253 217 222 223 199 168 172 184 183
197 227 224 213 217 222 224 244 229 232 261 253 247 246 321 233 216 212 156 170 96 178 159 185 217 218 224 204 194 212 213 206 212 224 227 232 224 237 221 208 209 162 162 180 180
195 224 152 290 307 228 212 206 231 241 221 244 245 240 149 313 318 188 220 27 103 56 160 161 203 204 217 208 215 224 222 212 217 219 230 244 248 239 224 192 192 167 170 194 186
203 223 346 211 247 191 208 227 219 221 242 236 253 246 268 280 2 349 300 293 332 58 112 139 152 163 215 203 219 242 229 220 219 212 218 227 240 198 196 201 204 183 186 196 198
Wind_Speed_850mb
24 28 30 29 29 29 28 29 26 28 28 31 30 31 26 31 38 47 59 48 44 36 19 15 14 22 27 17 13 9 7 10 10 7 8 7 12 12 9 10 11 14 13 15 12
26 28 28 29 32 33 32 32 33 31 31 32 33 32 31 32 38 59 63 40 43 46 34 29 24 28 16 14 10 12 7 10 10 11 16 11 21 14 12 9 11 14 22 16 17
33 33 34 33 35 36 34 35 33 32 31 31 29 27 27 29 37 48 36 25 38 46 43 31 18 29 17 12 14 11 19 20 25 40 28 14 15 17 17 12 24 32 29 25 22
40 39 39 38 39 36 37 37 36 33 33 34 31 26 25 19 13 5 7 14 29 40 46 36 30 19 11 10 12 15 26 23 21 14 12 11 11 16 27 26 9 21 25 29 27
47 45 44 43 42 41 41 40 37 35 34 35 33 29 26 21 54 18 16 6 7 40 57 47 33 21 16 13 11 18 30 11 13 10 13 11 11 14 28 31 26 17 29 31 26
47 47 47 47 46 46 46 44 39 37 36 36 36 33 29 31 38 31 52 49 30 15 59 56 31 35 11 12 22 15 21 2 1 2 3 6 4 6 12 29 28 25 35 33 27
46 46 47 49 50 50 49 44 41 39 39 38 39 40 42 66 24 25 16 20 36 27 38 57 46 29 21 11 16 9 9 5 5 5 2 7 11 18 24 23 31 35 37 35 29
47 47 46 48 50 51 49 44 41 40 41 39 40 39 35 44 37 44 58 41 16 20 22 36 44 24 11 3 1 8 6 3 1 6 2 14 26 19 24 33 36 35 39 38 36
48 49 47 46 49 49 47 43 39 40 40 37 30 25 26 31 35 40 50 39 32 20 21 24 35 19 13 13 10 4 9 10 9 10 5 16 20 16 11 34 35 36 41 42 37
46 43 45 47 44 44 44 37 32 34 32 19 18 10 39 23 15 14 19 44 27 31 28 24 13 16 12 16 23 15 7 5 8 3 11 14 28 37 25 27 40 39 38 39 40
50 49 47 42 41 38 37 16 12 9 30 28 22 24 5 17 16 15 20 41 36 33 22 24 20 32 34 21 12 15 9 9 10 13 8 18 25 36 30 28 32 36 42 42 45
47 46 46 44 36 30 24 7 1 7 20 45 63 53 51 23 10 19 25 31 27 26 22 14 35 26 23 20 16 11 8 10 12 7 9 19 27 33 23 18 34 43 45 48 42
46 44 41 42 39 23 17 13 12 8 13 23 55 59 81 48 26 27 34 26 23 26 41 39 20 26 22 20 18 12 12 8 16 3 10 12 16 14 12 12 15 27 42 46 51
39 39 39 36 30 19 16 22 17 10 10 12 20 26 55 37 22 65 35 27 11 39 27 25 20 29 23 27 24 21 23 12 11 8 17 3 12 13 15 23 18 27 38 46 51
34 31 38 32 18 12 11 22 13 14 12 10 15 8 27 59 24 39 59 38 29 21 21 30 30 30 24 24 23 19 12 10 7 12 5 8 8 9 8 18 27 26 36 44 55
39 29 33 37 31 28 22 13 17 8 24 8 19 23 26 50 22 20 36 33 24 16 14 36 11 22 28 15 25 10 8 6 5 4 8 11 11 6 10 14 12 10 17 40 52
36 41 32 46 32 26 24 15 11 19 1 15 15 19 29 27 35 23 39 42 33 33 37 19 28 11 15 17 8 17 13 10 8 8 12 4 8 15 24 25 18 29 17 32 50
39 34 46 45 38 32 20 11 24 24 36 4 9 22 27 30 34 28 38 41 42 42 30 33 27 31 18 35 26 27 26 15 10 8 15 6 9 11 7 6 12 16 9 30 49
37 40 47 41 49 34 15 26 30 28 33 15 12 20 17 26 18 30 42 46 49 47 34 37 36 14 28 17 33 14 14 12 17 3 8 6 10 21 4 12 3 5 14 32 50
35 38 48 41 52 45 14 49 29 18 10 47 32 19 30 38 23 35 38 34 39 44 32 14 19 27 22 22 15 27 25 10 5 10 14 8 6 14 16 15 4 9 17 32 44
31 18 25 43 55 35 25 32 42 31 18 23 45 18 16 23 36 34 24 22 46 41 39 27 17 8 19 31 38 14 17 5 5 6 16 17 10 9 9 7 11 12 23 39 51
21 8 28 42 20 9 30 26 21 23 62 14 8 38 15 20 29 29 35 25 48 37 45 37 21 29 20 6 30 44 36 31 20 19 8 10 20 11 15 10 11 3 17 31 52
11 11 42 62 17 8 29 39 41 24 24 10 10 5 22 16 11 23 18 14 34 44 39 25 21 25 25 9 6 26 24 27 14 8 26 23 15 10 11 9 9 18 28 36 52
8 6 11 38 16 9 35 36 27 34 39 35 30 15 10 20 6 7 17 1 22 38 43 47 20 49 39 24 28 20 25 29 32 20 21 25 28 13 20 13 14 24 26 34 51
23 9 6 5 11 32 18 16 38 26 33 22 20 24 10 16 22 20 6 8 7 13 20 30 37 34 44 34 33 38 38 36 33 32 28 26 23 27 27 22 19 19 26 34 45
12 7 12 4 9 33 14 21 40 24 40 34 27 13 4 7 4 17 2 7 5 10 16 3 15 27 38 31 41 46 43 39 43 41 37 36 34 23 20 24 21 25 32 34 44
16 22 4 1 5 8 17 36 25 36 18 58 25 36 18 7 6 6 7 9 1 2 6 9 15 15 29 23 33 39 52 46 43 34 33 33 36 18 19 27 32 32 39 43 45
Wind_Direction_850mb
273 277 288 294 297 295 295 295 302 298 302 310 311 307 308 295 282 271 261 247 237 236 236 238 253 208 191 191 193 185 232 253 258 241 287 212 221 224 226 177 169 195 239 253 238
281 284 283 287 289 289 293 297 293 298 302 303 303 309 308 299 288 272 267 259 243 233 232 239 233 192 184 179 182 208 230 233 225 218 255 233 219 208 192 161 206 222 239 220 202
291 292 290 288 285 288 298 292 292 295 294 293 294 299 302 302 305 279 280 230 234 231 228 241 225 189 199 166 185 199 250 250 254 250 253 250 209 197 205 206 213 220 211 198 209
287 287 286 282 284 286 284 286 287 288 288 290 293 295 292 288 255 233 206 118 212 206 218 213 174 174 181 207 203 239 240 243 284 274 206 224 179 206 213 241 210 247 234 205 213
280 280 281 283 284 284 283 283 283 283 283 285 289 289 289 256 244 238 212 220 330 208 206 204 192 192 218 206 201 231 260 214 257 264 217 181 225 233 239 233 244 241 202 203 213
285 284 281 280 279 278 277 278 279 281 281 282 284 284 280 251 277 261 246 251 252 232 205 209 205 205 201 210 217 231 232 219 142 281 189 211 213 213 277 230 229 217 201 207 217
287 287 288 285 282 277 274 274 277 278 278 278 279 278 264 250 259 278 256 256 239 238 220 212 211 186 192 220 245 264 193 138 177 208 3 195 248 232 251 221 212 203 204 208 212
287 287 287 286 284 282 283 281 278 276 275 275 275 271 253 274 264 248 247 246 219 212 222 235 215 209 189 205 128 214 99 171 106 184 243 211 275 274 250 206 204 201 204 207 212
294 293 288 284 284 286 287 286 281 274 275 277 266 233 265 258 252 250 242 231 217 230 205 196 182 189 166 217 207 186 248 275 293 214 159 214 268 276 251 213 211 202 204 208 211
303 301 307 294 286 286 286 290 285 274 264 250 224 232 244 231 230 243 220 217 196 179 157 167 168 180 181 200 220 235 202 198 246 242 213 245 254 273 264 220 222 209 202 206 212
291 302 309 310 291 290 291 309 285 239 218 207 204 215 206 210 238 223 222 182 189 167 177 179 191 207 203 207 214 225 195 227 242 256 257 262 273 276 278 236 222 210 205 206 213
282 288 295 305 310 289 297 289 14 273 295 244 241 239 231 237 301 209 188 165 178 186 150 158 214 201 180 194 186 181 190 238 270 271 222 280 274 277 268 252 229 217 208 207 205
280 273 287 295 306 284 271 224 214 312 268 267 238 231 227 222 222 225 182 193 186 174 188 201 196 160 172 173 183 188 210 219 286 312 239 279 274 282 292 263 249 231 223 211 205
286 270 272 284 295 258 242 213 233 242 283 252 208 233 211 207 235 228 199 189 188 199 183 207 158 167 179 194 197 219 218 239 247 267 292 228 296 292 294 291 262 238 214 207 202
286 280 265 267 251 256 175 174 199 170 274 173 179 175 185 182 165 201 210 206 205 172 178 192 171 180 187 203 184 241 165 205 230 252 295 212 243 271 290 278 271 252 217 206 202
282 269 256 253 251 241 223 186 161 199 242 210 160 169 155 197 205 138 173 194 196 173 209 212 177 190 205 189 191 161 133 93 95 176 249 243 227 266 247 249 269 261 211 202 194
275 267 250 246 246 255 221 177 190 224 39 188 181 172 173 179 203 177 181 186 184 182 203 185 200 188 193 206 136 176 190 238 236 219 268 103 200 263 269 267 277 295 272 200 190
267 264 256 249 240 236 224 200 218 225 211 108 141 166 184 159 207 197 183 192 200 200 189 197 209 197 181 213 203 196 206 232 238 241 292 137 233 261 275 335 304 311 251 182 183
269 256 254 248 227 216 203 202 222 196 195 201 155 166 185 189 183 193 208 203 193 191 191 197 216 175 183 189 197 176 200 231 247 52 260 253 248 279 270 253 292 94 162 173 182
260 259 251 234 208 197 202 228 226 208 188 209 204 182 186 189 186 193 185 208 200 198 200 170 198 207 187 197 197 204 161 176 192 227 252 215 263 266 294 314 249 201 189 177 182
247 248 236 225 205 189 208 226 234 261 334 204 221 208 196 174 195 196 204 196 190 186 196 176 190 150 177 199 205 179 202 188 231 233 256 272 263 231 227 290 309 231 201 179 182
232 243 195 194 189 221 213 222 298 307 250 303 267 229 207 179 187 196 202 199 189 161 193 190 199 208 195 178 227 206 207 206 225 211 231 272 266 194 215 256 292 198 194 193 183
213 243 205 190 211 211 232 241 261 289 305 269 281 303 217 191 199 211 191 216 181 185 178 168 202 200 219 202 168 212 199 207 220 229 224 242 252 167 238 258 200 165 173 189 181
195 254 208 200 213 236 225 227 238 265 270 262 289 300 242 218 211 157 194 152 184 194 186 176 189 208 212 230 197 201 190 203 201 219 230 237 253 217 222 223 199 168 172 184 183
197 227 224 213 217 222 224 244 229 232 261 253 247 246 321 233 216 212 156 170 96 178 159 185 217 218 224 204 194 212 213 206 212 224 227 232 224 237 221 208 209 162 162 180 180
195 224 152 290 307 228 212 206 231 241 221 244 245 240 149 313 318 188 220 27 103 56 160 161 203 204 217 208 215 224 222 212 217 219 230 244 248 239 224 192 192 167 170 194 186
203 223 346 211 247 191 208 227 219 221 242 236 253 246 268 280 2 349 300 293 332 58 112 139 152 163 215 203 219 242 229 220 219 212 218 227 240 198 196 201 204 183 186 196 198